Location: Ladrillo (historical)
(32.8195°N, 117.2231°W)
Time: 22:19:17
(UTC+00:00)

Altair - Pass Details

Date: 01 March 2021
Orbit: 1501 x 1683 km, 47.2° (Epoch: 15 April)

Event Time Altitude Azimuth Distance (km) Brightness Sun altitude
Rises 06:03:18 0° 290° (WNW) 4,675 10.6 -52.7°
Reaches altitude 10° 06:06:46 10° 299° (WNW) 3,714 9.9 -53.3°
Enters shadow 06:11:12 25° 323° (NW) 2,728 9.0 -54.1°
